Date_Time,Julian_Date,Latitude,Longitude,Instrument_Depth,U,V,Speed,Direction
(yyyy-mm-dd hh:mn:ss UTC),(JD),(+ deg. North),(+ deg. East),(m),(cm/s),(cm/s),(cm/s),(deg True)
1976-03-23 14:00:00 UTC,2442861.083333,28.8911,-94.6950,0177,-14.77,-11.96,19.0000,231.0000
1976-03-23 15:00:00 UTC,2442861.125000,28.8911,-94.6950,0177,-12.63,-11.38,17.0000,228.0000
1976-03-23 16:00:00 UTC,2442861.166667,28.8911,-94.6950,0177,-11.48,-6.10,13.0000,242.0000
1976-03-23 17:00:00 UTC,2442861.208333,28.8911,-94.6950,0177,-9.71,-7.05,12.0000,234.0000
1976-03-23 18:00:00 UTC,2442861.250000,28.8911,-94.6950,0177,-9.58,-7.22,12.0000,233.0000
1976-03-23 19:00:00 UTC,2442861.291667,28.8911,-94.6950,0177,-10.18,-6.36,12.0000,238.0000
1976-03-23 20:00:00 UTC,2442861.333333,28.8911,-94.6950,0177,-10.72,-2.47,11.0000,257.0000
1976-03-23 21:00:00 UTC,2442861.375000,28.8911,-94.6950,0177,-10.79,-5.26,12.0000,244.0000
1976-03-23 22:00:00 UTC,2442861.416667,28.8911,-94.6950,0177,-10.06,-6.54,12.0000,237.0000
1976-03-23 23:00:00 UTC,2442861.458333,28.8911,-94.6950,0177,-11.02,-6.89,13.0000,238.0000
1976-03-24 00:00:00 UTC,2442861.500000,28.8911,-94.6950,0177,-11.82,-9.23,15.0000,232.0000
1976-03-24 01:00:00 UTC,2442861.541667,28.8911,-94.6950,0177,-13.90,-12.96,19.0000,227.0000
1976-03-24 02:00:00 UTC,2442861.583333,28.8911,-94.6950,0177,-14.77,-11.96,19.0000,231.0000
1976-03-24 03:00:00 UTC,2442861.625000,28.8911,-94.6950,0177,-15.54,-12.59,20.0000,231.0000
1976-03-24 04:00:00 UTC,2442861.666667,28.8911,-94.6950,0177,-17.41,-11.74,21.0000,236.0000
1976-03-24 05:00:00 UTC,2442861.708333,28.8911,-94.6950,0177,-14.42,-9.01,17.0000,238.0000
1976-03-24 06:00:00 UTC,2442861.750000,28.8911,-94.6950,0177,-15.13,-5.21,16.0000,251.0000
1976-03-24 07:00:00 UTC,2442861.791667,28.8911,-94.6950,0177,-14.10,-5.13,15.0000,250.0000
1976-03-24 08:00:00 UTC,2442861.833333,28.8911,-94.6950,0177,-13.16,-4.79,14.0000,250.0000
1976-03-24 09:00:00 UTC,2442861.875000,28.8911,-94.6950,0177,-8.61,-2.63,9.0000,253.0000
1976-03-24 10:00:00 UTC,2442861.916667,28.8911,-94.6950,0177,-5.73,-4.02,7.0000,235.0000
1976-03-24 11:00:00 UTC,2442861.958333,28.8911,-94.6950,0177,-5.87,-3.81,7.0000,237.0000
1976-03-24 12:00:00 UTC,2442862.000000,28.8911,-94.6950,0177,-7.77,-6.29,10.0000,231.0000
1976-03-24 13:00:00 UTC,2442862.041667,28.8911,-94.6950,0177,-8.30,-7.22,11.0000,229.0000
1976-03-24 14:00:00 UTC,2442862.083333,28.8911,-94.6950,0177,-6.29,-7.77,10.0000,219.0000
1976-03-24 15:00:00 UTC,2442862.125000,28.8911,-94.6950,0177,-5.88,-8.09,10.0000,216.0000
1976-03-24 16:00:00 UTC,2442862.166667,28.8911,-94.6950,0177,-5.88,-8.09,10.0000,216.0000
1976-03-24 17:00:00 UTC,2442862.208333,28.8911,-94.6950,0177,-7.07,-8.43,11.0000,220.0000
1976-03-24 18:00:00 UTC,2442862.250000,28.8911,-94.6950,0177,-3.09,-5.14,6.0000,211.0000
1976-03-24 19:00:00 UTC,2442862.291667,28.8911,-94.6950,0177,-3.94,-4.53,6.0000,221.0000
1976-03-24 20:00:00 UTC,2442862.333333,28.8911,-94.6950,0177,-3.43,-2.06,4.0000,239.0000
1976-03-24 21:00:00 UTC,2442862.375000,28.8911,-94.6950,0177,-3.86,-1.04,4.0000,255.0000
1976-03-24 22:00:00 UTC,2442862.416667,28.8911,-94.6950,0177,-6.24,-3.18,7.0000,243.0000
1976-03-24 23:00:00 UTC,2442862.458333,28.8911,-94.6950,0177,-10.05,-4.47,11.0000,246.0000
1976-03-25 00:00:00 UTC,2442862.500000,28.8911,-94.6950,0177,-10.24,-8.00,13.0000,232.0000
1976-03-25 01:00:00 UTC,2442862.541667,28.8911,-94.6950,0177,-13.57,-8.48,16.0000,238.0000
1976-03-25 02:00:00 UTC,2442862.583333,28.8911,-94.6950,0177,-13.86,-8.00,16.0000,240.0000
1976-03-25 03:00:00 UTC,2442862.625000,28.8911,-94.6950,0177,-16.99,-12.34,21.0000,234.0000
1976-03-25 04:00:00 UTC,2442862.666667,28.8911,-94.6950,0177,-15.56,-10.90,19.0000,235.0000
1976-03-25 05:00:00 UTC,2442862.708333,28.8911,-94.6950,0177,-15.59,-9.00,18.0000,240.0000
1976-03-25 06:00:00 UTC,2442862.750000,28.8911,-94.6950,0177,-2.92,-0.67,3.0000,257.0000
1976-03-25 07:00:00 UTC,2442862.791667,28.8911,-94.6950,0177,-3.88,-0.97,4.0000,256.0000
1976-03-25 08:00:00 UTC,2442862.833333,28.8911,-94.6950,0177,-2.95,-0.52,3.0000,260.0000
1976-03-25 09:00:00 UTC,2442862.875000,28.8911,-94.6950,0177,-3.00,-0.10,3.0000,268.0000
1976-03-25 10:00:00 UTC,2442862.916667,28.8911,-94.6950,0177,-2.00,0.03,2.0000,271.0000
1976-03-25 11:00:00 UTC,2442862.958333,28.8911,-94.6950,0177,-7.61,2.47,8.0000,288.0000
1976-03-25 12:00:00 UTC,2442863.000000,28.8911,-94.6950,0177,-6.58,2.39,7.0000,290.0000
1976-03-25 13:00:00 UTC,2442863.041667,28.8911,-94.6950,0177,-6.87,-1.34,7.0000,259.0000
1976-03-25 14:00:00 UTC,2442863.083333,28.8911,-94.6950,0177,-7.06,-3.76,8.0000,242.0000
1976-03-25 15:00:00 UTC,2442863.125000,28.8911,-94.6950,0177,-11.14,-6.70,13.0000,239.0000
1976-03-25 16:00:00 UTC,2442863.166667,28.8911,-94.6950,0177,-11.31,-11.31,16.0000,225.0000
1976-03-25 17:00:00 UTC,2442863.208333,28.8911,-94.6950,0177,-11.43,-15.17,19.0000,217.0000
1976-03-25 18:00:00 UTC,2442863.250000,28.8911,-94.6950,0177,-10.70,-13.21,17.0000,219.0000
1976-03-25 19:00:00 UTC,2442863.291667,28.8911,-94.6950,0177,-10.93,-13.02,17.0000,220.0000
1976-03-25 20:00:00 UTC,2442863.333333,28.8911,-94.6950,0177,-11.31,-11.31,16.0000,225.0000
1976-03-25 21:00:00 UTC,2442863.375000,28.8911,-94.6950,0177,-14.94,-5.73,16.0000,249.0000
1976-03-25 22:00:00 UTC,2442863.416667,28.8911,-94.6950,0177,-16.63,-3.53,17.0000,258.0000
1976-03-25 23:00:00 UTC,2442863.458333,28.8911,-94.6950,0177,-15.97,-5.81,17.0000,250.0000
1976-03-26 00:00:00 UTC,2442863.500000,28.8911,-94.6950,0177,-18.67,-7.17,20.0000,249.0000
1976-03-26 01:00:00 UTC,2442863.541667,28.8911,-94.6950,0177,-18.02,-12.62,22.0000,235.0000
1976-03-26 02:00:00 UTC,2442863.583333,28.8911,-94.6950,0177,-20.35,-12.72,24.0000,238.0000
1976-03-26 03:00:00 UTC,2442863.625000,28.8911,-94.6950,0177,-20.97,-13.62,25.0000,237.0000
1976-03-26 04:00:00 UTC,2442863.666667,28.8911,-94.6950,0177,-19.90,-13.42,24.0000,236.0000
1976-03-26 05:00:00 UTC,2442863.708333,28.8911,-94.6950,0177,-19.07,-12.86,23.0000,236.0000
1976-03-26 06:00:00 UTC,2442863.750000,28.8911,-94.6950,0177,-20.85,-9.72,23.0000,245.0000
1976-03-26 07:00:00 UTC,2442863.791667,28.8911,-94.6950,0177,-18.67,-7.17,20.0000,249.0000
1976-03-26 08:00:00 UTC,2442863.833333,28.8911,-94.6950,0177,-17.12,-5.56,18.0000,252.0000
1976-03-26 09:00:00 UTC,2442863.875000,28.8911,-94.6950,0177,-16.56,-3.82,17.0000,257.0000
1976-03-26 10:00:00 UTC,2442863.916667,28.8911,-94.6950,0177,-14.85,-2.09,15.0000,262.0000
1976-03-26 11:00:00 UTC,2442863.958333,28.8911,-94.6950,0177,-12.98,-0.68,13.0000,267.0000
1976-03-26 12:00:00 UTC,2442864.000000,28.8911,-94.6950,0177,-11.97,-0.84,12.0000,266.0000
1976-03-26 13:00:00 UTC,2442864.041667,28.8911,-94.6950,0177,-10.79,-5.26,12.0000,244.0000
1976-03-26 14:00:00 UTC,2442864.083333,28.8911,-94.6950,0177,-9.37,-10.40,14.0000,222.0000
1976-03-26 15:00:00 UTC,2442864.125000,28.8911,-94.6950,0177,-9.37,-10.40,14.0000,222.0000
1976-03-26 16:00:00 UTC,2442864.166667,28.8911,-94.6950,0177,-7.36,-8.17,11.0000,222.0000
1976-03-26 17:00:00 UTC,2442864.208333,28.8911,-94.6950,0177,-7.50,-8.04,11.0000,223.0000
1976-03-26 18:00:00 UTC,2442864.250000,28.8911,-94.6950,0177,-7.55,-4.90,9.0000,237.0000
1976-03-26 19:00:00 UTC,2442864.291667,28.8911,-94.6950,0177,-5.04,-4.86,7.0000,226.0000
1976-03-26 20:00:00 UTC,2442864.333333,28.8911,-94.6950,0177,-5.20,-3.00,6.0000,240.0000
1976-03-26 21:00:00 UTC,2442864.375000,28.8911,-94.6950,0177,-8.40,-3.23,9.0000,249.0000
1976-03-26 22:00:00 UTC,2442864.416667,28.8911,-94.6950,0177,-7.73,-2.07,8.0000,255.0000
1976-03-26 23:00:00 UTC,2442864.458333,28.8911,-94.6950,0177,-5.74,-1.75,6.0000,253.0000
1976-03-27 00:00:00 UTC,2442864.500000,28.8911,-94.6950,0177,-6.66,-2.16,7.0000,252.0000
1976-03-27 01:00:00 UTC,2442864.541667,28.8911,-94.6950,0177,-6.58,-2.39,7.0000,250.0000
1976-03-27 02:00:00 UTC,2442864.583333,28.8911,-94.6950,0177,-9.74,-2.25,10.0000,257.0000
1976-03-27 03:00:00 UTC,2442864.625000,28.8911,-94.6950,0177,-12.12,-7.00,14.0000,240.0000
1976-03-27 04:00:00 UTC,2442864.666667,28.8911,-94.6950,0177,-5.77,-1.65,6.0000,254.0000
1976-03-27 05:00:00 UTC,2442864.708333,28.8911,-94.6950,0177,-5.74,-1.75,6.0000,253.0000
1976-03-27 06:00:00 UTC,2442864.750000,28.8911,-94.6950,0177,-5.77,-1.65,6.0000,254.0000
1976-03-27 07:00:00 UTC,2442864.791667,28.8911,-94.6950,0177,-6.76,-1.81,7.0000,255.0000
1976-03-27 08:00:00 UTC,2442864.833333,28.8911,-94.6950,0177,-7.73,-2.07,8.0000,255.0000
1976-03-27 09:00:00 UTC,2442864.875000,28.8911,-94.6950,0177,-6.79,-1.69,7.0000,256.0000
1976-03-27 10:00:00 UTC,2442864.916667,28.8911,-94.6950,0177,-6.79,-1.69,7.0000,256.0000
1976-03-27 11:00:00 UTC,2442864.958333,28.8911,-94.6950,0177,-6.79,-1.69,7.0000,256.0000
1976-03-27 12:00:00 UTC,2442865.000000,28.8911,-94.6950,0177,-6.82,-1.57,7.0000,257.0000
1976-03-27 13:00:00 UTC,2442865.041667,28.8911,-94.6950,0177,-6.79,-1.69,7.0000,256.0000
1976-03-27 14:00:00 UTC,2442865.083333,28.8911,-94.6950,0177,-7.73,-2.07,8.0000,255.0000
1976-03-27 15:00:00 UTC,2442865.125000,28.8911,-94.6950,0177,-6.76,-1.81,7.0000,255.0000
1976-03-27 16:00:00 UTC,2442865.166667,28.8911,-94.6950,0177,-5.80,-1.55,6.0000,255.0000
1976-03-27 17:00:00 UTC,2442865.208333,28.8911,-94.6950,0177,-5.80,-1.55,6.0000,255.0000
1976-03-27 18:00:00 UTC,2442865.250000,28.8911,-94.6950,0177,-4.81,-1.38,5.0000,254.0000
1976-03-27 19:00:00 UTC,2442865.291667,28.8911,-94.6950,0177,-2.93,-0.62,3.0000,258.0000
1976-03-27 20:00:00 UTC,2442865.333333,28.8911,-94.6950,0177,-3.90,-0.90,4.0000,257.0000
1976-04-08 10:00:00 UTC,2442876.916667,28.8911,-94.6950,0177,-7.00,-0.12,7.0000,269.0000
1976-04-08 11:00:00 UTC,2442876.958333,28.8911,-94.6950,0177,-3.78,-1.30,4.0000,251.0000
1976-04-08 12:00:00 UTC,2442877.000000,28.8911,-94.6950,0177,-4.97,-3.36,6.0000,236.0000
1976-04-08 13:00:00 UTC,2442877.041667,28.8911,-94.6950,0177,-3.58,-9.34,10.0000,201.0000
1976-04-08 14:00:00 UTC,2442877.083333,28.8911,-94.6950,0177,-3.23,-8.40,9.0000,201.0000
1976-04-08 15:00:00 UTC,2442877.125000,28.8911,-94.6950,0177,-0.21,-3.99,4.0000,183.0000
1976-04-08 16:00:00 UTC,2442877.166667,28.8911,-94.6950,0177,-0.26,-2.99,3.0000,185.0000
1976-04-08 17:00:00 UTC,2442877.208333,28.8911,-94.6950,0177,-1.22,-2.74,3.0000,204.0000
1976-04-08 18:00:00 UTC,2442877.250000,28.8911,-94.6950,0177,-3.39,-6.12,7.0000,209.0000
1976-04-08 19:00:00 UTC,2442877.291667,28.8911,-94.6950,0177,-2.94,-4.05,5.0000,216.0000
1976-04-08 20:00:00 UTC,2442877.333333,28.8911,-94.6950,0177,-3.35,-3.72,5.0000,222.0000
1976-04-08 21:00:00 UTC,2442877.375000,28.8911,-94.6950,0177,-3.28,-3.77,5.0000,221.0000
1976-04-08 22:00:00 UTC,2442877.416667,28.8911,-94.6950,0177,-2.11,-4.53,5.0000,205.0000
1976-04-08 23:00:00 UTC,2442877.458333,28.8911,-94.6950,0177,-4.30,-10.13,11.0000,203.0000
1976-04-09 00:00:00 UTC,2442877.500000,28.8911,-94.6950,0177,-2.92,-9.56,10.0000,197.0000
1976-04-09 01:00:00 UTC,2442877.541667,28.8911,-94.6950,0177,-2.47,-7.61,8.0000,198.0000
1976-04-09 02:00:00 UTC,2442877.583333,28.8911,-94.6950,0177,-1.57,-6.82,7.0000,193.0000
1976-04-09 03:00:00 UTC,2442877.625000,28.8911,-94.6950,0177,-0.42,-3.98,4.0000,186.0000
1976-04-09 04:00:00 UTC,2442877.666667,28.8911,-94.6950,0177,-4.99,-0.35,5.0000,266.0000
1976-04-09 05:00:00 UTC,2442877.708333,28.8911,-94.6950,0177,-1.70,1.06,2.0000,302.0000
1976-04-09 06:00:00 UTC,2442877.750000,28.8911,-94.6950,0177,1.73,-1.00,2.0000,120.0000
1976-04-09 07:00:00 UTC,2442877.791667,28.8911,-94.6950,0177,1.15,-1.64,2.0000,145.0000
1976-04-09 08:00:00 UTC,2442877.833333,28.8911,-94.6950,0177,0.72,-1.87,2.0000,159.0000
1976-04-09 09:00:00 UTC,2442877.875000,28.8911,-94.6950,0177,0.78,-1.84,2.0000,157.0000
1976-04-09 10:00:00 UTC,2442877.916667,28.8911,-94.6950,0177,-0.63,-3.95,4.0000,189.0000
1976-04-09 11:00:00 UTC,2442877.958333,28.8911,-94.6950,0177,-0.61,-4.96,5.0000,187.0000
1976-04-09 12:00:00 UTC,2442878.000000,28.8911,-94.6950,0177,-3.26,-9.46,10.0000,199.0000
1976-04-09 13:00:00 UTC,2442878.041667,28.8911,-94.6950,0177,-4.66,-12.14,13.0000,201.0000
1976-04-09 14:00:00 UTC,2442878.083333,28.8911,-94.6950,0177,-5.62,-13.91,15.0000,202.0000
1976-04-09 15:00:00 UTC,2442878.125000,28.8911,-94.6950,0177,-6.64,-15.65,17.0000,203.0000
1976-04-09 16:00:00 UTC,2442878.166667,28.8911,-94.6950,0177,-6.51,-14.62,16.0000,204.0000
1976-04-09 17:00:00 UTC,2442878.208333,28.8911,-94.6950,0177,-6.81,-13.37,15.0000,207.0000
1976-04-09 18:00:00 UTC,2442878.250000,28.8911,-94.6950,0177,-5.90,-11.58,13.0000,207.0000
1976-04-09 19:00:00 UTC,2442878.291667,28.8911,-94.6950,0177,-5.90,-11.58,13.0000,207.0000
1976-04-09 20:00:00 UTC,2442878.333333,28.8911,-94.6950,0177,-5.63,-10.60,12.0000,208.0000
1976-04-09 21:00:00 UTC,2442878.375000,28.8911,-94.6950,0177,-6.30,-11.37,13.0000,209.0000
1976-04-09 22:00:00 UTC,2442878.416667,28.8911,-94.6950,0177,-6.50,-11.26,13.0000,210.0000
1976-04-09 23:00:00 UTC,2442878.458333,28.8911,-94.6950,0177,-6.50,-11.26,13.0000,210.0000
1976-04-10 00:00:00 UTC,2442878.500000,28.8911,-94.6950,0177,-6.79,-12.24,14.0000,209.0000
1976-04-10 01:00:00 UTC,2442878.541667,28.8911,-94.6950,0177,-7.27,-13.12,15.0000,209.0000
1976-04-10 02:00:00 UTC,2442878.583333,28.8911,-94.6950,0177,-8.50,-14.72,17.0000,210.0000
1976-04-10 03:00:00 UTC,2442878.625000,28.8911,-94.6950,0177,-7.95,-12.72,15.0000,212.0000
1976-04-10 04:00:00 UTC,2442878.666667,28.8911,-94.6950,0177,-11.66,-9.44,15.0000,231.0000
1976-04-10 05:00:00 UTC,2442878.708333,28.8911,-94.6950,0177,-9.19,-7.71,12.0000,230.0000
1976-04-10 06:00:00 UTC,2442878.750000,28.8911,-94.6950,0177,-6.78,-4.24,8.0000,238.0000
1976-04-10 07:00:00 UTC,2442878.791667,28.8911,-94.6950,0177,-8.51,-2.93,9.0000,251.0000
1976-04-10 08:00:00 UTC,2442878.833333,28.8911,-94.6950,0177,-6.95,-0.85,7.0000,263.0000
1976-04-10 09:00:00 UTC,2442878.875000,28.8911,-94.6950,0177,-6.95,-0.85,7.0000,263.0000
1976-04-10 10:00:00 UTC,2442878.916667,28.8911,-94.6950,0177,-6.82,-1.57,7.0000,257.0000
1976-04-10 11:00:00 UTC,2442878.958333,28.8911,-94.6950,0177,-5.80,-1.55,6.0000,255.0000
1976-04-10 12:00:00 UTC,2442879.000000,28.8911,-94.6950,0177,-4.11,-5.66,7.0000,216.0000
1976-04-10 13:00:00 UTC,2442879.041667,28.8911,-94.6950,0177,-5.83,-9.33,11.0000,212.0000
1976-04-10 14:00:00 UTC,2442879.083333,28.8911,-94.6950,0177,-4.69,-11.05,12.0000,203.0000
1976-04-10 15:00:00 UTC,2442879.125000,28.8911,-94.6950,0177,-7.08,-10.90,13.0000,213.0000
1976-04-10 16:00:00 UTC,2442879.166667,28.8911,-94.6950,0177,-4.99,-9.80,11.0000,207.0000
1976-04-10 17:00:00 UTC,2442879.208333,28.8911,-94.6950,0177,-4.30,-11.20,12.0000,201.0000
1976-04-10 18:00:00 UTC,2442879.250000,28.8911,-94.6950,0177,-6.54,-10.06,12.0000,213.0000
1976-04-10 19:00:00 UTC,2442879.291667,28.8911,-94.6950,0177,-6.31,-9.01,11.0000,215.0000
1976-04-10 20:00:00 UTC,2442879.333333,28.8911,-94.6950,0177,-6.43,-7.66,10.0000,220.0000
1976-04-10 21:00:00 UTC,2442879.375000,28.8911,-94.6950,0177,-5.88,-8.09,10.0000,216.0000
1976-04-10 22:00:00 UTC,2442879.416667,28.8911,-94.6950,0177,-4.93,-6.30,8.0000,218.0000
1976-04-10 23:00:00 UTC,2442879.458333,28.8911,-94.6950,0177,-5.54,-7.09,9.0000,218.0000
1976-04-11 00:00:00 UTC,2442879.500000,28.8911,-94.6950,0177,-5.82,-10.50,12.0000,209.0000
1976-04-11 01:00:00 UTC,2442879.541667,28.8911,-94.6950,0177,-7.46,-10.65,13.0000,215.0000
1976-04-11 02:00:00 UTC,2442879.583333,28.8911,-94.6950,0177,-8.03,-11.47,14.0000,215.0000
1976-04-11 03:00:00 UTC,2442879.625000,28.8911,-94.6950,0177,-7.83,-11.61,14.0000,214.0000
1976-04-11 04:00:00 UTC,2442879.666667,28.8911,-94.6950,0177,-8.62,-11.03,14.0000,218.0000
1976-04-11 05:00:00 UTC,2442879.708333,28.8911,-94.6950,0177,-4.31,-5.52,7.0000,218.0000
1976-04-11 06:00:00 UTC,2442879.750000,28.8911,-94.6950,0177,-4.32,-4.17,6.0000,226.0000
1976-04-11 07:00:00 UTC,2442879.791667,28.8911,-94.6950,0177,-4.19,-2.72,5.0000,237.0000
1976-04-11 08:00:00 UTC,2442879.833333,28.8911,-94.6950,0177,-4.73,-1.63,5.0000,251.0000
1976-04-11 09:00:00 UTC,2442879.875000,28.8911,-94.6950,0177,-2.78,-1.12,3.0000,248.0000
1976-04-11 10:00:00 UTC,2442879.916667,28.8911,-94.6950,0177,-0.42,-0.91,1.0000,205.0000
1976-04-11 11:00:00 UTC,2442879.958333,28.8911,-94.6950,0177,0.97,-1.75,2.0000,151.0000
1976-04-11 12:00:00 UTC,2442880.000000,28.8911,-94.6950,0177,0.35,-3.98,4.0000,175.0000
1976-04-11 13:00:00 UTC,2442880.041667,28.8911,-94.6950,0177,0.21,-6.00,6.0000,178.0000
1976-04-11 14:00:00 UTC,2442880.083333,28.8911,-94.6950,0177,-1.53,-7.85,8.0000,191.0000
1976-04-11 15:00:00 UTC,2442880.125000,28.8911,-94.6950,0177,-1.25,-8.91,9.0000,188.0000
1976-04-11 16:00:00 UTC,2442880.166667,28.8911,-94.6950,0177,-2.10,-10.80,11.0000,191.0000
1976-04-11 17:00:00 UTC,2442880.208333,28.8911,-94.6950,0177,-4.88,-10.96,12.0000,204.0000
1976-04-11 18:00:00 UTC,2442880.250000,28.8911,-94.6950,0177,-3.66,-8.22,9.0000,204.0000
1976-04-11 19:00:00 UTC,2442880.291667,28.8911,-94.6950,0177,-3.75,-9.27,10.0000,202.0000
1976-04-11 20:00:00 UTC,2442880.333333,28.8911,-94.6950,0177,-3.27,-5.03,6.0000,213.0000
1976-04-11 21:00:00 UTC,2442880.375000,28.8911,-94.6950,0177,0.00,-3.00,3.0000,180.0000
1976-04-11 22:00:00 UTC,2442880.416667,28.8911,-94.6950,0177,-1.58,-1.23,2.0000,232.0000
1976-04-11 23:00:00 UTC,2442880.458333,28.8911,-94.6950,0177,-0.81,-1.83,2.0000,204.0000
1976-04-12 00:00:00 UTC,2442880.500000,28.8911,-94.6950,0177,-0.55,-1.92,2.0000,196.0000
1976-04-12 01:00:00 UTC,2442880.541667,28.8911,-94.6950,0177,-1.12,-4.87,5.0000,193.0000
1976-04-12 02:00:00 UTC,2442880.583333,28.8911,-94.6950,0177,-3.58,-9.34,10.0000,201.0000
1976-04-12 03:00:00 UTC,2442880.625000,28.8911,-94.6950,0177,-4.10,-11.28,12.0000,200.0000
1976-04-12 04:00:00 UTC,2442880.666667,28.8911,-94.6950,0177,-6.34,-13.59,15.0000,205.0000
1976-04-12 05:00:00 UTC,2442880.708333,28.8911,-94.6950,0177,-6.00,-10.39,12.0000,210.0000
1976-04-12 06:00:00 UTC,2442880.750000,28.8911,-94.6950,0177,-6.02,-6.69,9.0000,222.0000
1976-04-12 07:00:00 UTC,2442880.791667,28.8911,-94.6950,0177,-3.66,-3.41,5.0000,227.0000
1976-04-12 08:00:00 UTC,2442880.833333,28.8911,-94.6950,0177,-0.37,-2.98,3.0000,187.0000
1976-04-12 09:00:00 UTC,2442880.875000,28.8911,-94.6950,0177,1.97,-0.35,2.0000,100.0000
1976-04-12 10:00:00 UTC,2442880.916667,28.8911,-94.6950,0177,2.88,-0.83,3.0000,106.0000
1976-04-12 11:00:00 UTC,2442880.958333,28.8911,-94.6950,0177,1.44,-1.39,2.0000,134.0000
1976-04-12 12:00:00 UTC,2442881.000000,28.8911,-94.6950,0177,0.52,-1.93,2.0000,165.0000
1976-04-12 13:00:00 UTC,2442881.041667,28.8911,-94.6950,0177,-1.75,-5.74,6.0000,197.0000
1976-04-12 14:00:00 UTC,2442881.083333,28.8911,-94.6950,0177,-2.21,-7.69,8.0000,196.0000
1976-04-12 15:00:00 UTC,2442881.125000,28.8911,-94.6950,0177,-3.22,-10.52,11.0000,197.0000
1976-04-12 16:00:00 UTC,2442881.166667,28.8911,-94.6950,0177,-3.91,-11.35,12.0000,199.0000
1976-04-12 17:00:00 UTC,2442881.208333,28.8911,-94.6950,0177,-4.23,-12.29,13.0000,199.0000
1976-04-12 18:00:00 UTC,2442881.250000,28.8911,-94.6950,0177,-1.87,-8.80,9.0000,192.0000
1976-04-12 19:00:00 UTC,2442881.291667,28.8911,-94.6950,0177,0.17,-5.00,5.0000,178.0000
1976-04-12 20:00:00 UTC,2442881.333333,28.8911,-94.6950,0177,1.22,-2.74,3.0000,156.0000
1976-04-12 21:00:00 UTC,2442881.375000,28.8911,-94.6950,0177,2.16,-2.08,3.0000,134.0000
1976-04-12 22:00:00 UTC,2442881.416667,28.8911,-94.6950,0177,2.36,-1.85,3.0000,128.0000
1976-04-12 23:00:00 UTC,2442881.458333,28.8911,-94.6950,0177,1.58,-1.23,2.0000,128.0000
1976-04-13 00:00:00 UTC,2442881.500000,28.8911,-94.6950,0177,1.26,-1.55,2.0000,141.0000
1976-04-13 01:00:00 UTC,2442881.541667,28.8911,-94.6950,0177,1.85,-0.75,2.0000,112.0000
1976-04-13 02:00:00 UTC,2442881.583333,28.8911,-94.6950,0177,0.49,-3.97,4.0000,173.0000
1976-04-13 03:00:00 UTC,2442881.625000,28.8911,-94.6950,0177,0.61,-4.96,5.0000,173.0000
1976-04-13 04:00:00 UTC,2442881.666667,28.8911,-94.6950,0177,-2.25,-9.74,10.0000,193.0000
1976-04-13 05:00:00 UTC,2442881.708333,28.8911,-94.6950,0177,-1.72,-8.83,9.0000,191.0000
1976-04-13 06:00:00 UTC,2442881.750000,28.8911,-94.6950,0177,-1.87,-8.80,9.0000,192.0000
1976-04-13 07:00:00 UTC,2442881.791667,28.8911,-94.6950,0177,0.61,-4.96,5.0000,173.0000
1976-04-13 08:00:00 UTC,2442881.833333,28.8911,-94.6950,0177,1.43,-3.73,4.0000,159.0000
1976-04-13 09:00:00 UTC,2442881.875000,28.8911,-94.6950,0177,6.04,-5.25,8.0000,131.0000
1976-04-13 10:00:00 UTC,2442881.916667,28.8911,-94.6950,0177,1.69,-6.79,7.0000,166.0000
1976-04-13 11:00:00 UTC,2442881.958333,28.8911,-94.6950,0177,-1.81,-6.76,7.0000,195.0000
1976-04-13 12:00:00 UTC,2442882.000000,28.8911,-94.6950,0177,-1.25,-5.87,6.0000,192.0000
1976-04-13 13:00:00 UTC,2442882.041667,28.8911,-94.6950,0177,0.87,-4.92,5.0000,170.0000
1976-04-13 14:00:00 UTC,2442882.083333,28.8911,-94.6950,0177,1.14,-5.89,6.0000,169.0000
1976-04-13 15:00:00 UTC,2442882.125000,28.8911,-94.6950,0177,-9.23,-11.82,15.0000,218.0000
1976-04-13 16:00:00 UTC,2442882.166667,28.8911,-94.6950,0177,-9.18,-13.11,16.0000,215.0000
1976-04-13 17:00:00 UTC,2442882.208333,28.8911,-94.6950,0177,-9.64,-11.49,15.0000,220.0000
1976-04-13 18:00:00 UTC,2442882.250000,28.8911,-94.6950,0177,-10.04,-11.15,15.0000,222.0000
1976-04-13 19:00:00 UTC,2442882.291667,28.8911,-94.6950,0177,-9.73,-10.07,14.0000,224.0000
1976-04-13 20:00:00 UTC,2442882.333333,28.8911,-94.6950,0177,-9.12,-6.15,11.0000,236.0000
1976-04-13 21:00:00 UTC,2442882.375000,28.8911,-94.6950,0177,-8.39,-5.45,10.0000,237.0000
1976-04-13 22:00:00 UTC,2442882.416667,28.8911,-94.6950,0177,-9.33,-5.83,11.0000,238.0000
1976-04-13 23:00:00 UTC,2442882.458333,28.8911,-94.6950,0177,-7.95,-4.23,9.0000,242.0000
1976-04-14 00:00:00 UTC,2442882.500000,28.8911,-94.6950,0177,-6.44,-2.74,7.0000,247.0000
1976-04-14 01:00:00 UTC,2442882.541667,28.8911,-94.6950,0177,-3.89,-3.15,5.0000,231.0000
1976-04-14 02:00:00 UTC,2442882.583333,28.8911,-94.6950,0177,-4.47,-6.63,8.0000,214.0000
1976-04-14 03:00:00 UTC,2442882.625000,28.8911,-94.6950,0177,-4.12,-10.20,11.0000,202.0000
1976-04-14 04:00:00 UTC,2442882.666667,28.8911,-94.6950,0177,-5.07,-10.88,12.0000,205.0000
1976-04-14 05:00:00 UTC,2442882.708333,28.8911,-94.6950,0177,-4.66,-12.14,13.0000,201.0000
1976-04-14 06:00:00 UTC,2442882.750000,28.8911,-94.6950,0177,-4.82,-9.89,11.0000,206.0000
1976-04-14 07:00:00 UTC,2442882.791667,28.8911,-94.6950,0177,-1.34,-6.87,7.0000,191.0000
1976-04-14 08:00:00 UTC,2442882.833333,28.8911,-94.6950,0177,-0.70,-4.95,5.0000,188.0000
1976-04-14 09:00:00 UTC,2442882.875000,28.8911,-94.6950,0177,0.42,-2.97,3.0000,172.0000
1976-04-14 10:00:00 UTC,2442882.916667,28.8911,-94.6950,0177,0.97,-1.75,2.0000,151.0000
1976-04-14 11:00:00 UTC,2442882.958333,28.8911,-94.6950,0177,3.65,-1.63,4.0000,114.0000
1976-04-14 12:00:00 UTC,2442883.000000,28.8911,-94.6950,0177,2.78,-1.12,3.0000,112.0000
1976-04-14 13:00:00 UTC,2442883.041667,28.8911,-94.6950,0177,4.53,-2.11,5.0000,115.0000
1976-04-14 14:00:00 UTC,2442883.083333,28.8911,-94.6950,0177,2.51,-6.54,7.0000,159.0000
1976-04-14 15:00:00 UTC,2442883.125000,28.8911,-94.6950,0177,0.52,-4.97,5.0000,174.0000
1976-04-14 16:00:00 UTC,2442883.166667,28.8911,-94.6950,0177,-1.24,-3.80,4.0000,198.0000
1976-04-14 17:00:00 UTC,2442883.208333,28.8911,-94.6950,0177,-2.15,-5.60,6.0000,201.0000
1976-04-14 18:00:00 UTC,2442883.250000,28.8911,-94.6950,0177,-12.50,-21.65,25.0000,210.0000
1976-04-14 19:00:00 UTC,2442883.291667,28.8911,-94.6950,0177,-15.28,-21.03,26.0000,216.0000
1976-04-14 20:00:00 UTC,2442883.333333,28.8911,-94.6950,0177,-13.12,-15.09,20.0000,221.0000
1976-04-14 21:00:00 UTC,2442883.375000,28.8911,-94.6950,0177,-9.81,-8.53,13.0000,229.0000
1976-04-14 22:00:00 UTC,2442883.416667,28.8911,-94.6950,0177,-7.63,-4.77,9.0000,238.0000
1976-04-14 23:00:00 UTC,2442883.458333,28.8911,-94.6950,0177,-8.48,-5.30,10.0000,238.0000
1976-04-15 00:00:00 UTC,2442883.500000,28.8911,-94.6950,0177,-8.65,-2.48,9.0000,254.0000
1976-04-15 01:00:00 UTC,2442883.541667,28.8911,-94.6950,0177,-8.89,-1.41,9.0000,261.0000
1976-04-15 02:00:00 UTC,2442883.583333,28.8911,-94.6950,0177,-9.56,-2.92,10.0000,253.0000
1976-04-15 03:00:00 UTC,2442883.625000,28.8911,-94.6950,0177,-8.80,-1.87,9.0000,258.0000